AQI (64)

Current Conditions for Foresthill, CA. Clear skies, Dry   
Visibility: 10 miles
Space WX Alerts: EXTENDED WARNING:  Geomagnetic K-index of 4 expected ( Latest Alert ) - Issue Time: 2021 Oct 12 2109 UTC

  Summary / Temperature 

Current Temperature
53.1°F
11.7°C
(24/hr Ago)
55.4°F
(Apparent temp)
47.6°F
Cool
Wind Chill Graphs
53.1°F 

53.1°F/ 11.7°C
 --- Virtual Temp: 54.1°F ---

 Temp Rate:

 24/hr Difference:

 Avg Running Temp:

 Todays High:

 Todays Low:

 Y-days High:

 Y-days Low:

 Todays WChill:

 Y-days WChill:

 Evapotranspiration:

-0.8°F/hr 

-2.3°F

54.0°F

58.3°F 12:00am

53.1°F 6:13am

79.6°F 1:36pm

55.2°F 3:03am

49.7°F 5:30am

52.2°F 6:06am

0.012 in

115' Above Ground

 Temperature:

 6'AGL VRS 115'AGL:

 Avg Running Temp:

 Humidity:

 Todays High:

 Todays Low:

 Y-days High:

 Y-days Low:

71.0°F 

+17.9°F

71.0°F

0% 

71.0°F 12:00am

71.0°F 12:00am

78.0°F 12:25pm

69.0°F 12:00am

Temp & Humidity Graphs

  Wind 

Wind Speed

 Calm

Gusting to

 9.0 mph

Wind from ESE

113°  ESE

Calm

 Avg speed:

 Wind Run:

 Peak Gust:

  2.0 mph 

18.0 miles

  16.0 mph 3:07am

  Almanac  

Moon age: 11 days,20 hours,32 minutes,91%

Waxing Gibbous
91%
Illuminated
11 days in cycle

 Moonrise:

 Moonset:

 Sunrise:

 Sunset:

 Solar Noon:

5:26pm

4:09am

7:16am

6:22pm

12:49pm

2min 27s less daylight tomorrow 

  Solar Radiation 

(Current Solar)
  No Sun Light
(Todays High)
 None@12:00am

Rain

 Rain Today:

 Rain Rate (/hr):

 Rain last hour:

 Rain Yesterday:

 This Month:

 Season Total:

8 Days Since Last Rain Day

0.00 in

0.000 in

0.00 in

0.00 in

0.22 in

1.18 in

Updated Time

Updated: 10/17/21  6:16am

(Updated  sec ago)

Humidity & Barometer

 Humidity:

 Wetbulb:

 Dew Point:

 Barometer:

35% 

43.7°F 

26.1°F 

29.885 inHg 

 Baro Trend:  Steady 
Northern Calif
Preparedness
Fire 
Level 

    UV Index  

(Current UV)
0.0  None
(Todays High) @ 12:00am
0.0   None

National Weather Service Forecast

Overnight

Overnight: Partly Cloudy
Partly Cloudy
Sunday

Sunday: Mostly Sunny , Thunderstorms
Mostly Sunny , T-Storms
Sunday
Night
Sunday Night: Showers, Thunderstorms
Showers, T-Storms
Monday

Monday: Slight Chance Rain Showers then Mostly Sunny
Slight Chance Rain Showers
Monday
Night
Monday Night: Partly Cloudy
Partly Cloudy
Tuesday

Tuesday: Mostly Sunny
Mostly Sunny
Lo 54 °F Hi 65 °F ↓ Lo 40 °F ↑ Hi 52 °F Lo 40 °F Hi 59 °F

Foresthill Probe 2 Stats  
Foresthill Probe 2: is located on Thomas Street
at 3000 feet. The main Foresthill Weather site
is located on Melody ln at the 2860 foot elevation

Calm
51.7°F
10.9°C
Temp Rate:
-0.4°F
2.0 mph
Gusting to
2.0 mph
(Humidity)
37%
Wind from SE
132°  SE
Updated: 17/10/21 - 06:16:28
 Todays High: 55.6°F 00:00
 Todays Low: 50.8°F 05:37
 Rain Today: 0.00 in
 Season Total: 1.35 in

Foresthill Wx: Monthly,Yearly, Highs and Lows 

Foresthill  
This Weather Data is coming from the main Foresthill
Weather site located on Melody ln at the 2860 foot
elevation
Not Foresthill Probe 2
Weather Data
Month
  High
Month
  Low
Year
High
Year
Low
Temp 87.6°F
10/4/21
39.1°F
10/11/21
103.9°F
6/18/21
25.3°F
1/26/21
Humidity 89%
10/8/21
9%
10/4/21
100%
1/3/21
5%
7/12/21
Heat Index 84.0°F
10/4/21
39.0°F
10/12/21
101.4°F
6/27/21
31.2°F
1/26/21
Wind Chill 87.6°F
10/4/21
30.3°F
10/11/21
103.9°F
6/18/21
12.5°F
1/26/21
Wind Gust 30 mph
10/11/21
0 mph
10/1/21
50 mph
1/19/21
0 mph
1/1/21
Barometer 30.24 in
10/9/21
29.86 in
10/11/21
30.52 in
2/21/21
29.61 in
8/31/21
ET 0.18 in
10/4/21
0.00 in
10/1/21
0.33 in
7/12/21
0.00 in
1/1/21
Dew Point 46.5°F
10/7/21
12.6°F
10/12/21
64.9°F
9/10/21
3.6°F
2/24/21
Visible Satellite Pacific Satellite US Radar Satellite Imagery Sacramento,CA.  (click to enlarge)
NWS Weather Forecast - Summary
Updated: Sunday, October 17, 2021 - 3:30am PDT
Strong Ridgetop Wind Today and Tonight
NWS Weather Forecast: Overnight and Sunday (Updated: Sun, 17-Oct-2021 1:55am PDT)
Overnight

Overnight: Partly Cloudy
Partly Cloudy

Lo 54 °F
NWS forecast: Partly cloudy, with a low around 54. East southeast wind around 8 mph.
Sunday

Sunday: Mostly Sunny , Thunderstorms
Mostly Sunny , T-Storms

Hi 65 °F ↓
NWS forecast: Showers and thunderstorms after 5pm. Mostly sunny. High near 65, with temperatures falling to around 60 in the afternoon. South wind 8 to 17 mph, with gusts as high as 24 mph. Chance of precipitation is 90%. New rainfall amounts between a quarter and half of an inch possible.
YR.NO 10 Day Weather forecast
Last update: 10/17/2021 @ 02:11
Next update: 10/17/2021 @ 08:11
Provided by: 22
      Temperature Precipitation Pressure Wind  
Today
10/17/2021
04:00 06:00 46°F   29.91 inHg Light breeze from east 7 mph
  06:00 12:00 48°F   29.89 inHg Light breeze from east 6 mph
  12:00 18:00 63°F   29.88 inHg Gentle breeze from south-southwest 9 mph
  18:00 00:00 54°F 0.36 in 29.80 inHg Gentle breeze from southwest 9 mph
    (Click to enlarge)
meteogram

    Forecast for next 9 days

      Temperature Precip Pressure Wind  
Monday
10/18/2021
00:00 06:00 39°F 0.12 in 29.96 inHg Light breeze from south 6 mph
  06:00 12:00 37°F < 0.01 in 30.04 inHg Light breeze from south-southeast 6 mph
  12:00 18:00 45°F   30.07 inHg Light air from southwest 3 mph
  18:00 00:00 48°F   30.00 inHg Light breeze from west-northwest 4 mph
      Temperature Precip Pressure Wind  
Tuesday
10/19/2021
00:00 06:00 32°F   30.02 inHg Light breeze from east 4 mph
  06:00 12:00 30°F   30.00 inHg Light breeze from east 5 mph
  11:00 17:00 55°F   29.99 inHg Light breeze from south-southwest 6 mph
  17:00 23:00 55°F   29.91 inHg Light breeze from south-southwest 5 mph
  23:00 05:00 48°F 0.26 in 29.96 inHg Light breeze from south-southeast 4 mph
      Temperature Precip Pressure Wind  
Wednesday
10/20/2021
05:00 11:00 45°F 0.03 in 30.08 inHg Light breeze from southeast 7 mph
  11:00 17:00 48°F   30.15 inHg Light air from east 3 mph
  17:00 23:00 54°F 0.02 in 30.14 inHg Light breeze from south-southeast 4 mph
  23:00 05:00 50°F 0.04 in 30.17 inHg Light breeze from east 5 mph
      Temperature Precip Pressure Wind  
Thursday
10/21/2021
05:00 11:00 50°F   30.17 inHg Light breeze from east-southeast 5 mph
  11:00 17:00 59°F   30.20 inHg Light breeze from south-southeast 4 mph
  17:00 23:00 59°F 0.55 in 30.14 inHg Light breeze from south 4 mph
  23:00 05:00 54°F 0.11 in 30.14 inHg Light breeze from southeast 7 mph
      Temperature Precip Pressure Wind  
Friday
10/22/2021
05:00 11:00 54°F 0.55 in 30.06 inHg Light breeze from south-southeast 5 mph
  11:00 17:00 54°F 0.18 in 30.08 inHg Light breeze from south 7 mph
  17:00 23:00 54°F 0.02 in 30.01 inHg Light breeze from south-southwest 6 mph
  23:00 05:00 50°F   30.01 inHg Light breeze from south-southeast 5 mph
      Temperature Precip Pressure Wind  
Saturday
10/23/2021
05:00 11:00 46°F   29.96 inHg Light breeze from east-southeast 5 mph
  11:00 17:00 55°F   29.97 inHg Light breeze from south-southwest 4 mph
  17:00 23:00 55°F   29.92 inHg Light air from southwest 3 mph
  23:00 05:00 46°F   29.96 inHg Light air from south 3 mph
      Temperature Precip Pressure Wind  
Sunday
10/24/2021
05:00 11:00 45°F 0.05 in 29.91 inHg Light air from east-southeast 3 mph
  11:00 17:00 46°F 0.61 in 29.91 inHg Light breeze from south 4 mph
  17:00 23:00 45°F 0.46 in 29.84 inHg Gentle breeze from south-southeast 9 mph
  23:00 05:00 45°F 0.37 in 29.94 inHg Gentle breeze from south-southwest 11 mph
      Temperature Precip Pressure Wind  
Monday
10/25/2021
05:00 11:00 45°F 0.05 in 30.00 inHg Light breeze from southeast 4 mph
  11:00 17:00 50°F 0.05 in 30.02 inHg Gentle breeze from south 8 mph
  17:00 23:00 50°F 0.11 in 29.95 inHg Gentle breeze from south 9 mph
  23:00 05:00 46°F 0.35 in 29.96 inHg Light breeze from south-southwest 6 mph
      Temperature Precip Pressure Wind  
Tuesday
10/26/2021
05:00 11:00 45°F 1.11 in 29.91 inHg Gentle breeze from south-southeast 11 mph

NOAA Local Storm Report
1 MILE WEST-NORTHWEST OF CARMICHAEL   ( More )
DATE
10/11/2021
TIME
12:44 PM
COUNTY
SACRAMENTO
STATE
CA
GEOGRAPHIC
38.64N 121.33W
SOURCE
DEPT OF HIGHWAYS
NON-THUNDERSTORM WIND DAMAGE
california highway patrol reported a downed tree at fair oaks blvd and manzanita ave.
How Close Are We To this Month's Temperature Record ?
Updated Sunday, Oct 17, 2021- 6:15:00 AM

Current Temperature: 53.1°F

October's High: Temperature Record 90.7°F - Set on Thu, Oct 1, 2020 - 2:42:00 PM
We are currently 37.6°F Less than this Month's record High

October's Low: Temperature Record 38.8°F - Set on Tue, Oct 23, 2012 - 11:59:00 PM
We are currently 14.3°F More than this Month's record Low

Weather History For Sunday, October 17, 2021


On this Day - In Weather History ...
Data courtesy of weatherforyou.com
powered by Cumulus v1.9.3 (1059)
Ambient Weather VWS v14.00
Top Website Map Copyright © 2007 - 2021 Foresthillweather.com Never base important decisions on this or any weather information obtained from the Internet